"Pseudo-MPEC" for A11Fnb5

Created 2026 Aug 14 16:35:04 UT using Find_Orb

Click here for an explanation of pseudo-MPECs

 
 Astrometry: 
     A11Fnb5*0C2026 08 04.41781919 21 58.039-15 26 49.88   ~84BKx16.82oVNEOCPT08
     A11Fnb5 0C2026 08 04.42147219 23 25.174-15 28 48.04   ~84BK 17.04oVNEOCPT08
     A11Fnb5 0C2026 08 04.42786819 25 56.256-15 32 08.99   ~84BKx17.27oVNEOCPT08
     A11Fnb5 0C2026 08 04.44036919 30 35.333-15 37 53.18   ~84BK 16.85oVNEOCPT08
     A11Fnb5*0C2026 08 04.45247319 34 53.662-15 42 41.69   ~84J5x16.96oVNEOCPT08
     A11Fnb5 0C2026 08 04.48266619 44 53.986-15 51 46.37   ~84J5 17.24oVNEOCPT08
     A11Fnb5 0C2026 08 04.48732419 46 20.412-15 52 50.66   ~84J5 17.03oVNEOCPT08

Station data:
(T08) ATLAS-MLO, Mauna Loa  (N19.536150 W155.576050)  US/Hawaii.  Observers
   L. Denneau, R. Siverd, J. Tonry, H. Weiland. Measurers L. Denneau, N.
   Erasmus, A. Fitzsimmons, J. Robinson, R. Siverd, J. Tonry, H. Weiland.
   0.5-m f/2.0 Schmidt + CCD.

Orbital elements:  A11Fnb5
   Perigee 2026 Aug 4.130505 +/- 0.00262 TT =  3:07:55.6 (JD 2461256.630505)
Epoch 2026 Aug  4.0 TT = JDT 2461256.5                           AutoNEOCP
q100802.5563 +/- 5909               (J2000 equator)
H   31.11 G 0.15                    Peri.  190.130572 +/- 1.5
                                    Node    46.996771 +/- 0.41
e   6.26247920 +/- 0.958            Incl.   15.657722 +/- 0.026
4 of 7 observations 2026 Aug. 4 (94.8 min); mean residual 1".25
Residuals in arcseconds: 
260804 T08( 2.4-  2.0-)   260804 T08  .96-  .09+    260804 T08  2.1-  .17+    
260804 T08  .51+  .05-    260804 T08(18.6-  .12-)   
260804 T08(27.6+  2.5-)   260804 T08  2.6+  .21-    

Ephemerides (geocentric):
Date (UTC) HH   RA             Dec           delta  r     elong  mag " sig PA
---- --------  ------------   ------------  ------ ------ -----  --- --------
2026 08 14 17  22 20 01.027   -14 58 45.99  .02857 1.0410 169.3 24.1 1653  86
2026 08 14 18  22 20 02.089   -14 58 44.78  .02868 1.0411 169.3 24.2 1653  86
2026 08 14 19  22 20 03.140   -14 58 43.59  .02880 1.0412 169.3 24.2 1654  86
2026 08 14 20  22 20 04.179   -14 58 42.39  .02891 1.0414 169.4 24.2 1654  86
2026 08 14 21  22 20 05.206   -14 58 41.20  .02903 1.0415 169.4 24.2 1654  86
2026 08 14 22  22 20 06.223   -14 58 40.01  .02914 1.0416 169.4 24.2 1655  86
2026 08 14 23  22 20 07.228   -14 58 38.82  .02925 1.0417 169.5 24.2 1655  86
2026 08 15 00  22 20 08.223   -14 58 37.63  .02937 1.0418 169.5 24.2 1655  86
2026 08 15 01  22 20 09.206   -14 58 36.45  .02948 1.0419 169.5 24.2 1655  86
2026 08 15 02  22 20 10.179   -14 58 35.26  .02959 1.0420 169.6 24.2 1656  86
2026 08 15 03  22 20 11.141   -14 58 34.08  .02971 1.0421 169.6 24.2 1656  86
2026 08 15 04  22 20 12.093   -14 58 32.90  .02982 1.0422 169.6 24.2 1656  86
2026 08 15 05  22 20 13.035   -14 58 31.72  .02994 1.0423 169.7 24.2 1657  86
2026 08 15 06  22 20 13.966   -14 58 30.55  .03005 1.0424 169.7 24.2 1657  86
2026 08 15 07  22 20 14.887   -14 58 29.37  .03016 1.0425 169.7 24.2 1657  86
2026 08 15 08  22 20 15.798   -14 58 28.19  .03028 1.0426 169.8 24.3 1657  86
2026 08 15 09  22 20 16.700   -14 58 27.01  .03039 1.0427 169.8 24.3 1658  86
2026 08 15 10  22 20 17.592   -14 58 25.84  .03051 1.0429 169.8 24.3 1658  86
2026 08 15 11  22 20 18.474   -14 58 24.66  .03062 1.0430 169.9 24.3 1658  86
2026 08 15 12  22 20 19.346   -14 58 23.49  .03074 1.0431 169.9 24.3 1658  86
2026 08 15 13  22 20 20.210   -14 58 22.31  .03085 1.0432 169.9 24.3 1659  86
2026 08 15 14  22 20 21.064   -14 58 21.14  .03096 1.0433 170.0 24.3 1659  86
2026 08 15 15  22 20 21.908   -14 58 19.96  .03108 1.0434 170.0 24.3 1659  86
2026 08 15 16  22 20 22.744   -14 58 18.78  .03119 1.0435 170.0 24.3 1659  86
2026 08 15 17  22 20 23.571   -14 58 17.61  .03131 1.0436 170.1 24.3 1660  86
2026 08 15 18  22 20 24.389   -14 58 16.43  .03142 1.0437 170.1 24.3 1660  86
2026 08 15 19  22 20 25.198   -14 58 15.25  .03154 1.0438 170.1 24.3 1660  86
2026 08 15 20  22 20 25.999   -14 58 14.07  .03165 1.0439 170.2 24.3 1660  86
2026 08 15 21  22 20 26.791   -14 58 12.89  .03176 1.0440 170.2 24.3 1661  86
2026 08 15 22  22 20 27.575   -14 58 11.71  .03188 1.0442 170.2 24.3 1661  86
2026 08 15 23  22 20 28.350   -14 58 10.52  .03199 1.0443 170.3 24.4 1661  86
2026 08 16 00  22 20 29.118   -14 58 09.34  .03211 1.0444 170.3 24.4 1661  86
2026 08 16 01  22 20 29.877   -14 58 08.15  .03222 1.0445 170.3 24.4 1661  86
2026 08 16 02  22 20 30.628   -14 58 06.97  .03234 1.0446 170.4 24.4 1662  86
2026 08 16 03  22 20 31.371   -14 58 05.78  .03245 1.0447 170.4 24.4 1662  86
2026 08 16 04  22 20 32.106   -14 58 04.58  .03257 1.0448 170.4 24.4 1662  86
2026 08 16 05  22 20 32.833   -14 58 03.39  .03268 1.0449 170.4 24.4 1662  86
2026 08 16 06  22 20 33.553   -14 58 02.19  .03280 1.0450 170.5 24.4 1662  86
2026 08 16 07  22 20 34.265   -14 58 00.99  .03291 1.0451 170.5 24.4 1663  86
2026 08 16 08  22 20 34.970   -14 57 59.79  .03303 1.0452 170.5 24.4 1663  86
2026 08 16 09  22 20 35.667   -14 57 58.59  .03314 1.0453 170.6 24.4 1663  86
2026 08 16 10  22 20 36.357   -14 57 57.39  .03326 1.0455 170.6 24.4 1663  86
2026 08 16 11  22 20 37.040   -14 57 56.18  .03337 1.0456 170.6 24.4 1663  86
2026 08 16 12  22 20 37.715   -14 57 54.97  .03349 1.0457 170.7 24.4 1664  86
2026 08 16 13  22 20 38.383   -14 57 53.75  .03360 1.0458 170.7 24.4 1664  86
2026 08 16 14  22 20 39.045   -14 57 52.53  .03372 1.0459 170.7 24.5 1664  86
2026 08 16 15  22 20 39.699   -14 57 51.31  .03383 1.0460 170.8 24.5 1664  86
2026 08 16 16  22 20 40.347   -14 57 50.09  .03395 1.0461 170.8 24.5 1664  86